Location: Auckland
(36.8500°S, 174.7800°E)
Time: 08:06:02
(UTC+12:00)

ISS - Pass Details

Date: 15 March 2026
Orbit: 416 x 424 km, 51.6° (Epoch: 11 April)

Event Time Altitude Azimuth Distance (km) Brightness Sun altitude
Exits shadow 06:08:27 - 355° (N) 2,186 -0.3 -14.7°
Reaches altitude 10° 06:10:46 10° 18° (NNE) 1,495 -0.9 -14.3°
Maximum altitude 06:12:40 14° 52° (NE) 1,263 -0.8 -13.9°
Drops below altitude 10° 06:14:36 10° 87° (E) 1,509 0.3 -13.5°
Sets 06:17:25 0° 112° (ESE) 2,384 2.0 -13.0°
